Bloomington, IN

5:58 AM EDT on April 25, 2018 (GMT -0400)
Monroe County

Weather History for KBMG - November, 2012

Change the Weather History Date:

Thursday, November 29, 2012

  Actual Average Record
Temperature  
Mean Temperature 36 °F 38 °F  
Max Temperature 51 °F 46 °F 69 °F (1998)
Min Temperature 20 °F 29 °F 14 °F (2013)
Degree Days  
Heating Degree Days 29 27  
Month to date heating degree days 704 609  
Since 1 July heating degree days 1199 1028  
Cooling Degree Days 0 0  
Month to date cooling degree days 0 0  
Year to date cooling degree days 1309 926  
Moisture  
Dew Point 26 °F    
Average Humidity 67    
Maximum Humidity 92    
Minimum Humidity 41    
Precipitation  
Precipitation 0.00 in 0.13 in 0.90 in (2010)
Month to date precipitation 1.36 3.81  
Year to date precipitation 28.83 43.88  
Sea Level Pressure  
Sea Level Pressure 30.29 in    
Wind  
Wind Speed 6 mph (South)    
Max Wind Speed 16 mph    
Max Gust Speed 21 mph    
Visibility 9 miles    
Events      
T = Trace of Precipitation, MM = Missing Value Source: NWS Daily Summary

Daily Weather History Graph

Daily Weather History Graph

Search for Another Location

Airport or City:

Astronomy

Nov. 29, 2012 Rise Set
Actual Time 7:45 AM EST 5:24 PM EST
Civil Twilight 7:15 AM EST 5:54 PM EST
Nautical Twilight 6:42 AM EST 6:27 PM EST
Astronomical Twilight 6:10 AM EST 6:59 PM EST
Moon 6:27 PM EST (11/29) 8:31 AM EST (11/29)
Length of Visible Light 10h 38m
Length of Day
9h 39m
Full, 99% of the Moon is Illuminated
Nov 29
Full
Dec 6
Last Quarter
Dec 13
New
Dec 20
First Quarter
Dec 28
Full

Hourly Weather History & Observations

Time (EST) Temp. Windchill Dew Point Humidity Pressure Visibility Wind Dir Wind Speed Gust Speed Precip Events Conditions
12:53 AM 24.1 °F - 19.9 °F 84% 30.39 in 9.0 mi Calm Calm - N/A   Clear
2:53 AM 23.0 °F - 19.0 °F 85% 30.38 in 7.0 mi Calm Calm - N/A   Clear
3:53 AM 25.0 °F - 19.9 °F 81% 30.37 in 7.0 mi Calm Calm - N/A   Clear
4:53 AM 24.1 °F - 19.0 °F 81% 30.36 in 6.0 mi Calm Calm - N/A   Haze
5:53 AM 23.0 °F - 19.0 °F 85% 30.37 in 6.0 mi Calm Calm - N/A   Clear
7:53 AM 24.1 °F - 19.9 °F 84% 30.38 in 4.0 mi Calm Calm - N/A   Clear
8:53 AM 27.0 °F - 23.0 °F 85% 30.38 in 4.0 mi Calm Calm - N/A   Clear
9:53 AM 37.9 °F 31.5 °F 28.0 °F 68% 30.37 in 9.0 mi South 9.2 mph - N/A   Clear
10:53 AM 42.1 °F 35.7 °F 28.9 °F 60% 30.35 in 10.0 mi SW 11.5 mph - N/A   Clear
11:53 AM 45.0 °F 40.1 °F 28.0 °F 52% 30.33 in 10.0 mi South 9.2 mph 17.3 mph N/A   Clear
12:53 PM 46.9 °F - 28.0 °F 48% 30.29 in 10.0 mi South 10.4 mph - N/A   Clear
1:53 PM 50.0 °F - 28.0 °F 43% 30.27 in 10.0 mi South 11.5 mph 17.3 mph N/A   Clear
2:53 PM 51.1 °F - 28.9 °F 43% 30.25 in 10.0 mi South 9.2 mph - N/A   Clear
3:53 PM 50.0 °F - 28.9 °F 44% 30.23 in 10.0 mi South 10.4 mph - N/A   Clear
4:53 PM 48.0 °F - 28.9 °F 48% 30.22 in 10.0 mi South 6.9 mph - N/A   Clear
5:53 PM 45.0 °F 42.6 °F 28.9 °F 53% 30.22 in 10.0 mi SSE 4.6 mph - N/A   Clear
6:53 PM 41.0 °F 38.0 °F 28.0 °F 60% 30.22 in 10.0 mi South 4.6 mph - N/A   Clear
7:53 PM 43.0 °F 38.2 °F 28.0 °F 56% 30.22 in 10.0 mi South 8.1 mph - N/A   Clear
8:53 PM 44.1 °F 39.0 °F 28.0 °F 53% 30.21 in 10.0 mi South 9.2 mph - N/A   Clear
9:53 PM 46.9 °F - 28.9 °F 50% 30.19 in 10.0 mi SSW 12.7 mph - N/A   Clear
10:53 PM 46.0 °F 41.4 °F 28.9 °F 51% 30.19 in 10.0 mi SSW 9.2 mph - N/A   Clear
11:53 PM 46.0 °F 41.9 °F 28.9 °F 51% 30.18 in 10.0 mi SSW 8.1 mph - N/A   Clear